SCP
0 0 0 0 0 0 0 0 0 0 0 0 0 0 0 0 0 0 0 1 1 1 1 1 1 1 1 1 1 1 1 1 0 0 0 0 0 0 0 0 0 0 0 0
0 0 0 0 0 0 0 0 0 0 0 0 0 0 0 0 0 0 0 0 1 1 1 1 1 1 1 0 0 0 0 0 0 0 0 0 0 0 0 0 0 0 0 0
0 0 0 0 0 0 0 0 0 0 0 0 0 0 0 0 0 0 0 0 0 0 1 1 1 0 0 0 0 0 0 0 0 0 0 0 0 0 0 0 0 0 0 0
0 0 0 0 0 0 0 0 0 0 0 0 0 0 0 0 0 0 0 0 0 0 0 1 0 0 0 0 0 0 0 0 0 0 0 0 0 0 0 0 0 0 0 0
0 0 0 0 0 0 0 0 0 0 0 0 0 0 0 0 0 0 0 0 0 0 0 1 0 0 0 0 0 0 0 0 0 0 0 0 0 0 0 0 0 0 0 0
0 0 0 0 0 0 0 0 0 0 0 0 0 0 0 0 0 0 0 0 0 0 1 1 1 0 0 0 0 0 0 0 0 0 0 0 0 0 0 0 0 0 0 0
0 0 0 0 0 0 0 0 0 0 0 0 0 0 0 0 0 0 1 1 0 0 0 1 1 0 0 0 0 0 0 0 0 0 0 0 0 0 0 0 0 0 0 0
0 0 0 0 0 0 0 0 0 0 0 0 0 0 0 0 0 1 1 1 1 0 0 0 0 0 0 0 0 0 0 1 1 0 0 0 0 0 0 0 0 0 0 0
0 0 0 0 0 0 0 0 0 0 0 0 0 0 0 0 0 1 1 1 1 1 0 0 0 0 0 0 0 0 0 0 0 0 0 0 0 0 0 0 0 0 0 0
0 0 0 0 0 0 0 0 0 0 0 0 0 0 0 0 1 1 1 1 1 1 1 0 0 0 0 0 0 0 0 0 0 0 0 0 0 0 0 0 0 0 0 0
0 0 0 0 0 0 0 0 0 0 0 0 0 0 0 0 1 1 1 1 1 1 1 0 0 0 0 0 0 0 0 0 0 0 0 0 0 0 0 0 0 0 0 0
0 0 0 0 0 0 0 0 0 0 0 0 0 0 0 0 1 1 1 1 1 1 1 0 0 0 0 0 0 0 0 0 0 0 0 0 0 0 0 0 0 0 0 0
0 0 0 0 0 0 0 0 0 0 0 0 0 0 0 0 1 1 1 1 1 1 0 0 0 0 0 0 0 0 0 0 0 1 0 0 0 0 0 0 0 0 0 0
0 0 0 0 0 0 0 0 0 0 0 0 0 0 0 0 1 1 1 1 1 1 1 0 0 0 0 0 0 0 0 0 1 1 1 1 0 0 0 0 0 0 0 0
0 0 0 0 0 0 0 0 0 0 0 0 0 1 0 0 0 0 0 1 1 1 0 0 0 0 0 0 0 0 0 0 0 1 1 1 1 1 0 0 0 0 0 0
0 0 0 0 0 0 0 0 0 0 0 1 1 1 1 1 0 0 0 0 0 0 0 0 0 0 0 0 0 0 0 0 0 0 1 1 1 1 1 1 0 0 0 0
0 0 0 0 0 0 0 0 0 0 0 1 1 1 1 0 0 0 0 0 0 0 0 0 0 0 0 0 0 0 0 0 0 0 0 0 0 1 1 1 1 1 0 0
0 0 0 0 0 0 0 0 0 0 1 1 1 1 0 0 0 0 0 0 0 0 0 0 0 0 0 0 0 0 0 0 0 0 0 0 0 1 1 1 1 1 0 0
0 0 0 0 0 0 0 0 0 1 1 1 1 1 0 0 0 0 0 0 0 0 0 0 0 0 0 0 0 0 0 0 0 0 0 0 1 1 1 1 1 1 0 0
0 0 0 0 0 0 0 0 1 1 1 0 0 0 0 0 0 0 0 0 0 0 0 0 0 0 0 0 0 0 0 0 0 0 0 0 1 1 1 1 1 1 0 0
0 0 0 0 0 0 0 0 0 0 0 0 0 0 0 0 0 0 0 0 0 0 0 0 0 0 0 0 0 0 0 0 0 0 0 0 1 1 1 1 1 0 0 0
0 0 0 0 0 0 0 0 0 0 0 0 0 0 0 0 0 0 0 0 0 0 0 0 0 0 0 0 0 0 0 0 0 0 0 0 0 1 1 0 0 0 0 0
0 0 0 0 0 0 0 0 0 0 0 0 0 0 0 0 0 0 0 0 0 0 0 0 0 0 0 0 0 0 0 0 0 0 0 0 0 0 0 0 0 0 0 0
0 0 0 0 0 0 0 0 0 0 0 0 0 0 0 0 0 0 0 0 0 0 0 0 0 0 0 0 0 0 0 0 0 0 0 0 0 0 0 0 0 0 0 0
0 0 0 0 0 0 0 0 0 0 0 0 0 0 0 0 0 0 0 0 0 0 0 0 0 0 0 0 0 0 0 0 0 0 0 0 0 0 0 0 0 0 0 0
0 0 0 0 0 0 0 0 0 0 0 0 0 0 0 0 0 0 0 0 0 0 0 0 0 0 0 0 0 0 0 0 0 0 0 0 0 0 0 0 0 0 0 0
0 0 0 0 0 0 0 0 0 0 0 0 0 0 0 0 0 0 0 0 0 0 0 0 0 0 0 0 0 0 0 0 0 0 0 0 0 0 0 0 0 0 0 0
Wind_Speed
5 5 5 6 7 8 9 8 6 5 5 4 3 2 2 3 4 4 5 5 6 6 6 7 7 6 6 6 6 6 6 6 6 6 5 5 5 5 4 4 4 4 4 3
5 5 6 7 7 8 8 8 8 7 7 4 2 2 3 4 5 5 5 5 5 6 6 7 7 6 6 6 6 6 6 6 5 5 5 5 5 5 4 4 4 3 3 3
6 5 6 9 8 9 8 8 8 8 5 3 3 2 3 4 5 5 5 5 6 6 6 7 7 7 6 6 6 6 6 5 5 5 5 5 5 5 5 5 4 4 4 3
5 6 9 2 1 5 7 8 8 7 5 4 4 2 2 3 4 5 5 5 5 5 6 6 6 6 6 6 6 6 6 5 5 5 5 5 5 5 5 4 4 4 4 4
5 7 7 5 5 6 7 7 6 7 6 5 4 4 4 3 3 4 4 4 5 5 6 6 6 6 6 6 6 6 5 5 5 6 5 5 5 5 4 4 4 4 4 4
7 8 7 3 2 3 6 7 4 4 4 4 5 5 3 2 2 3 3 3 4 5 5 6 6 6 6 6 6 5 5 5 5 5 5 5 5 4 3 3 3 3 3 3
10 9 6 1 2 5 8 1 3 4 4 4 4 1 2 2 2 3 4 4 4 5 5 5 6 6 6 5 4 4 4 4 4 5 5 5 4 4 4 3 3 3 3 2
9 10 7 3 5 6 1 3 2 2 3 3 2 2 3 2 3 4 4 5 5 5 5 5 5 5 5 4 3 3 4 4 4 5 4 4 4 4 4 4 4 3 3 2
6 5 1 4 4 2 2 1 1 2 2 3 3 3 3 3 3 4 5 5 5 5 5 5 5 4 5 4 4 4 4 4 4 4 4 4 4 4 3 3 3 2 2 2
8 7 5 5 5 4 4 2 2 1 2 3 3 3 3 3 3 3 4 4 4 5 5 5 4 4 3 4 4 5 5 4 4 4 4 4 3 3 3 3 3 3 2 2
10 7 6 6 5 4 3 2 2 2 2 2 3 3 3 3 3 3 3 4 4 4 5 5 5 4 4 4 4 4 4 4 4 3 3 3 3 1 2 2 1 2 2 2
8 6 7 6 5 5 4 4 3 2 2 2 3 3 3 3 3 3 4 4 4 4 4 4 4 4 3 4 4 4 3 3 3 3 3 3 3 2 3 1 2 1 1 2
8 7 6 5 5 5 5 5 4 3 3 3 2 3 4 3 3 3 3 4 4 4 4 4 4 3 3 3 4 4 4 3 3 3 3 3 3 3 2 2 2 2 2 2
8 7 7 7 5 5 5 5 4 3 3 3 2 3 3 3 4 4 4 4 4 4 4 4 4 3 3 3 4 4 3 3 3 3 3 3 3 3 2 2 2 1 2 3
9 9 8 6 6 5 5 5 5 4 3 3 3 3 4 4 4 4 3 4 4 5 5 4 4 3 3 3 4 4 3 3 3 2 3 3 3 2 2 2 2 1 1 2
6 6 6 6 6 6 6 6 6 5 4 3 3 3 4 4 4 4 4 5 5 6 5 5 4 3 3 3 3 3 2 3 3 3 3 3 3 3 2 2 2 2 1 1
7 7 7 7 7 8 7 7 6 5 4 4 3 3 4 4 4 4 4 4 4 4 4 4 4 3 3 4 3 2 3 3 4 3 3 3 3 3 2 2 2 2 1 1
7 8 7 7 7 7 7 6 5 5 4 4 4 4 5 5 5 5 4 4 4 3 3 4 4 4 4 4 3 2 2 3 3 3 3 2 2 2 2 2 2 2 1 1
7 6 6 6 6 7 6 5 5 4 4 4 4 5 5 5 5 4 5 5 5 4 4 4 4 4 4 3 2 2 3 3 3 3 2 3 3 2 2 2 2 2 2 2
6 5 5 5 5 5 5 5 4 4 4 4 4 4 4 4 4 4 5 4 4 3 3 4 5 4 4 4 3 2 3 3 3 3 3 3 3 3 2 2 2 2 2 2
4 4 4 4 4 4 5 5 5 4 4 4 4 4 4 4 4 4 4 3 3 3 3 4 4 3 3 3 4 3 3 3 3 3 3 3 3 3 2 2 2 2 2 2
3 3 3 4 5 4 4 4 4 5 4 4 4 4 4 4 3 3 4 2 2 3 3 3 3 3 3 3 3 3 3 3 3 2 2 2 2 2 2 2 2 2 2 2
2 2 3 4 4 4 4 3 4 4 5 5 4 4 4 3 3 3 3 2 2 3 3 2 3 4 4 3 3 3 3 3 3 3 2 2 2 2 2 2 2 2 2 2
2 2 2 3 4 4 4 3 3 3 4 4 3 3 3 2 2 1 1 2 3 3 2 3 5 6 4 3 3 3 3 3 3 3 2 2 2 2 2 2 2 2 2 2
2 2 3 4 4 3 3 3 4 4 4 3 3 2 2 1 2 1 2 3 4 3 3 4 6 5 4 2 2 2 2 2 2 2 2 2 2 2 2 2 2 2 2 2
1 1 2 2 2 2 3 3 3 3 3 3 2 1 1 2 2 2 2 3 4 3 3 3 4 4 2 2 2 2 2 2 2 2 2 2 2 2 2 2 2 2 2 2
1 1 2 2 2 2 2 3 3 3 3 3 3 2 2 2 3 3 3 3 2 2 2 2 2 2 2 2 2 1 1 1 1 1 1 1 2 2 2 2 2 2 2 2
Wind_Direction
271 282 271 255 237 220 227 243 252 259 263 274 270 258 227 194 176 172 171 168 170 173 171 172 171 173 175 178 175 175 180 187 191 190 185 185 182 185 185 189 198 198 195 195
250 241 241 254 248 235 234 239 240 251 264 270 257 247 223 200 185 180 178 175 174 176 172 173 172 175 178 178 176 174 178 182 178 182 179 180 181 181 182 184 190 190 196 190
247 237 246 247 240 230 224 225 229 240 246 221 230 241 237 216 202 192 182 178 179 181 179 176 176 176 177 175 172 176 180 177 174 177 176 180 177 178 181 184 186 192 197 193
253 245 247 259 203 231 233 237 235 243 247 232 226 227 244 229 214 202 186 180 181 182 179 177 171 172 173 173 175 178 181 178 174 176 177 176 177 182 190 190 184 194 200 199
247 252 258 246 225 214 228 238 236 232 227 215 197 195 200 194 212 212 202 192 184 182 173 167 164 169 173 175 175 178 182 184 178 177 175 175 179 187 190 190 192 195 198 202
233 248 252 232 169 221 236 230 202 220 214 202 200 216 174 143 184 186 171 171 169 166 162 160 159 166 173 173 177 182 185 187 179 177 176 180 183 184 179 186 196 196 194 205
233 245 254 283 189 206 228 226 159 204 204 201 214 276 88 113 129 132 135 136 143 150 154 155 157 166 171 169 176 181 180 176 173 175 179 178 177 177 178 179 183 193 194 199
227 238 236 157 194 222 299 60 142 180 195 203 195 140 135 124 120 122 126 134 141 144 143 144 154 164 165 166 171 168 168 170 174 173 170 168 168 174 178 177 183 192 201 207
238 251 306 200 233 294 308 228 174 170 179 176 164 155 147 139 131 131 135 138 146 147 142 140 149 163 163 158 163 163 162 167 172 169 163 166 167 168 174 183 195 200 204 220
242 243 242 236 232 248 258 258 232 201 173 173 167 157 150 144 140 135 139 139 149 152 147 145 148 157 158 156 164 162 158 158 164 166 162 163 166 172 179 186 195 204 211 223
242 245 246 234 232 232 243 254 244 210 185 188 179 170 160 153 151 147 143 146 154 155 152 155 154 154 156 158 163 163 157 154 159 157 155 155 147 135 195 187 211 223 220 218
245 243 247 244 232 230 230 235 229 214 202 192 188 178 174 167 162 158 155 155 157 156 161 162 156 154 157 163 171 168 159 154 155 156 154 156 151 126 69 94 104 161 293 271
260 257 259 259 243 234 234 235 231 226 206 191 189 184 183 176 171 170 172 172 171 169 170 163 155 154 160 169 174 172 170 165 162 166 164 171 175 174 161 133 133 160 196 219
244 239 241 236 232 235 234 228 221 217 199 186 185 182 181 177 172 179 187 186 178 175 176 169 162 162 165 170 174 177 172 159 169 173 177 182 188 189 187 188 182 162 149 168
242 243 243 237 231 233 231 214 203 201 188 181 181 185 187 188 187 186 184 182 179 179 177 173 171 167 161 169 180 183 178 173 174 174 181 187 191 192 194 199 198 177 151 140
236 233 229 223 219 223 224 212 205 202 197 192 190 190 189 187 185 181 176 179 184 186 181 179 179 171 167 176 179 182 175 157 185 188 186 187 187 191 193 194 199 198 191 172
217 220 222 220 218 221 218 213 208 201 201 201 196 186 175 172 177 181 181 183 189 188 184 183 180 174 181 187 186 182 175 170 186 201 197 195 195 197 199 202 208 211 211 179
228 230 226 226 221 215 214 209 207 206 203 196 184 182 183 185 189 187 181 173 169 174 183 182 175 178 184 188 187 185 186 191 199 199 195 198 206 208 211 218 219 224 218 177
226 235 238 236 223 208 203 199 201 198 189 181 183 190 193 195 193 185 182 181 183 187 186 175 177 187 182 177 182 189 194 198 201 196 193 187 202 209 211 213 217 223 223 218
224 227 230 228 215 202 194 189 184 179 178 178 183 187 189 188 183 184 188 194 200 192 175 173 187 190 182 171 184 196 194 197 198 194 197 203 207 210 214 219 222 226 232 238
220 213 204 195 191 196 192 180 173 174 174 178 182 185 185 181 182 187 189 195 188 164 160 177 194 186 179 170 190 198 194 195 197 199 201 206 209 213 218 224 230 236 242 247
210 198 189 180 181 183 179 176 173 167 165 170 176 175 172 175 183 198 207 201 167 156 173 186 189 164 166 179 191 190 192 196 200 202 207 209 212 217 220 224 231 236 241 246
205 199 190 187 184 172 163 168 171 168 168 173 177 178 179 180 188 193 200 177 163 173 186 184 151 147 169 189 188 191 195 200 205 205 207 211 217 222 225 229 233 232 234 242
197 190 184 174 165 164 166 166 163 161 162 167 175 178 176 175 186 199 173 146 158 172 182 150 152 164 187 198 192 196 198 200 206 209 209 213 218 226 232 237 242 243 237 242
188 175 171 168 170 172 165 155 148 144 146 147 150 159 173 179 171 158 142 145 145 156 150 150 158 171 187 190 192 195 200 199 199 206 213 220 227 235 238 237 241 245 241 241
194 175 173 179 173 163 162 159 155 155 154 148 143 138 131 123 122 125 128 139 142 142 146 155 163 173 178 172 181 187 189 179 186 203 213 223 225 230 233 234 244 250 251 254
151 153 156 158 159 168 168 162 158 162 162 156 143 133 132 129 125 124 125 129 136 142 142 148 158 163 158 156 160 173 190 196 203 214 219 228 231 233 234 242 251 255 253 249